EW2500 Weather Reports


Display with metric or nautical units.
time (UTC)temp
F
wind
direction
speed
MPH
gust
MPH
rain 1hr
in
rain 24hr
in
rain mn
in
humidity
%
barometer
mb
20171124091558 30 293 1.0 4.0 0.00 0.00 0.00 83 1013.3
20171124091051 29 294 1.0 4.0 0.00 0.00 0.00 83 1013.4
20171124090556 29 272 1.0 3.0 0.00 0.00 0.00 84 1013.5
20171124090058 29 254 1.0 3.0 0.00 0.00 0.00 84 1013.6
20171124085544 29 314 0.0 2.0 0.00 0.00 0.00 83 1013.6
20171124085044 29 314 1.0 2.0 0.00 0.00 0.00 83 1013.5
20171124084612 29 314 0.0 1.0 0.00 0.00 0.00 84 1013.4
20171124084050 29 314 0.0 1.0 0.00 0.00 0.00 84 1013.4
20171124083555 29 314 1.0 1.0 0.00 0.00 0.00 84 1013.5
20171124083053 29 314 0.0 3.0 0.00 0.00 0.00 85 1013.4
20171124082539 29 314 1.0 3.0 0.00 0.00 0.00 85 1013.4
20171124082104 29 321 2.0 3.0 0.00 0.00 0.00 84 1013.5
20171124081550 29 275 1.0 2.0 0.00 0.00 0.00 84 1013.5
20171124081111 29 275 1.0 2.0 0.00 0.00 0.00 84 1013.5
20171124080554 29 275 1.0 3.0 0.00 0.00 0.00 84 1013.4
20171124080116 30 275 1.0 3.0 0.00 0.00 0.00 84 1013.4
20171124075558 30 297 1.0 3.0 0.00 0.00 0.00 83 1013.5
20171124075053 30 299 1.0 3.0 0.00 0.00 0.00 83 1013.4
20171124074538 30 344 2.0 3.0 0.00 0.00 0.00 82 1013.5
20171124074041 30 291 2.0 4.0 0.00 0.00 0.00 82 1013.6
20171124073548 30 282 2.0 4.0 0.00 0.00 0.00 83 1013.7
20171124073051 30 322 2.0 3.0 0.00 0.00 0.00 82 1013.6
20171124072551 30 290 2.0 3.0 0.00 0.00 0.00 82 1013.7
20171124072053 30 292 2.0 6.0 0.00 0.00 0.00 82 1013.7
20171124071539 29 285 2.0 6.0 0.00 0.00 0.00 83 1013.7
20171124071059 29 294 2.0 4.0 0.00 0.00 0.00 83 1013.6
20171124070557 29 310 1.0 3.0 0.00 0.00 0.00 84 1013.6
20171124070101 28 306 2.0 3.0 0.00 0.00 0.00 84 1013.6
20171124065543 28 271 2.0 3.0 0.00 0.00 0.00 83 1013.6
20171124065044 29 267 2.0 5.0 0.00 0.00 0.00 82 1013.6
20171124064612 29 281 3.0 5.0 0.00 0.00 0.00 82 1013.7
20171124064051 29 272 2.0 3.0 0.00 0.00 0.00 81 1013.7
20171124063553 29 360 1.0 3.0 0.00 0.00 0.00 82 1013.6
20171124063051 29 277 1.0 3.0 0.00 0.00 0.00 81 1013.5
20171124062551 29 281 0.0 2.0 0.00 0.00 0.00 81 1013.5
20171124062052 29 281 1.0 2.0 0.00 0.00 0.00 81 1013.4
20171124061045 29 275 1.0 3.0 0.00 0.00 0.00 82 1013.6
20171124060612 29 260 1.0 2.0 0.00 0.00 0.00 83 1013.6
20171124060049 29 272 1.0 2.0 0.00 0.00 0.00 84 1013.6
20171124055552 28 273 1.0 2.0 0.00 0.00 0.00 85 1013.7
20171124055048 28 277 0.0 2.0 0.00 0.00 0.00 85 1013.7
20171124054551 28 277 0.0 2.0 0.00 0.00 0.00 85 1013.7
20171124054046 28 277 0.0 1.0 0.00 0.00 0.00 85 1013.7
20171124053552 28 277 0.0 1.0 0.00 0.00 0.00 85 1013.6
20171124053050 28 277 0.0 2.0 0.00 0.00 0.00 85 1013.7
20171124052613 28 277 1.0 3.0 0.00 0.00 0.00 85 1013.7
20171124052117 28 269 1.0 3.0 0.00 0.00 0.00 84 1013.7
20171124051604 28 279 1.0 2.0 0.00 0.00 0.00 84 1013.7
20171124051045 28 278 1.0 3.0 0.00 0.00 0.00 84 1013.7
20171124050548 28 278 1.0 3.0 0.00 0.00 0.00 84 1013.8
20171124050051 28 288 2.0 2.0 0.00 0.00 0.00 84 1013.9
20171124045538 29 288 1.0 2.0 0.00 0.00 0.00 83 1013.8
20171124045041 29 288 1.0 2.0 0.00 0.00 0.00 83 1013.9
20171124044548 28 288 1.0 2.0 0.00 0.00 0.00 85 1014.0
20171124044049 28 298 0.0 2.0 0.00 0.00 0.00 86 1014.0
20171124043539 28 298 1.0 2.0 0.00 0.00 0.00 86 1013.9
20171124043041 28 298 0.0 2.0 0.00 0.00 0.00 86 1013.8
20171124042543 28 298 1.0 2.0 0.00 0.00 0.00 86 1013.8
20171124042044 28 298 0.0 2.0 0.00 0.00 0.00 86 1013.9
20171124041549 29 298 1.0 2.0 0.00 0.00 0.00 86 1013.8
20171124041048 29 298 0.0 3.0 0.00 0.00 0.00 86 1013.7
20171124040555 29 298 1.0 3.0 0.00 0.00 0.00 85 1013.6
20171124040056 29 263 1.0 2.0 0.00 0.00 0.00 84 1013.6
20171124035541 29 263 1.0 2.0 0.00 0.00 0.00 83 1013.6
20171124035043 29 281 1.0 2.0 0.00 0.00 0.00 84 1013.6
20171124034549 29 281 0.0 2.0 0.00 0.00 0.00 84 1013.5
20171124034048 29 281 0.0 1.0 0.00 0.00 0.00 84 1013.6
20171124033554 29 281 0.0 2.0 0.00 0.00 0.00 84 1013.6
20171124033052 29 281 0.0 2.0 0.00 0.00 0.00 85 1013.7
20171124032602 29 281 1.0 1.0 0.00 0.00 0.00 84 1013.7
20171124032057 29 281 0.0 2.0 0.00 0.00 0.00 84 1013.6
20171124031541 29 281 1.0 2.0 0.00 0.00 0.00 83 1013.9
20171124031108 29 281 1.0 1.0 0.00 0.00 0.00 82 1013.8
20171124030552 29 281 0.0 1.0 0.00 0.00 0.00 82 1013.7
20171124030051 29 281 0.0 1.0 0.00 0.00 0.00 81 1013.8
20171124025558 29 281 0.0 2.0 0.00 0.00 0.00 82 1013.7
20171124025054 29 281 0.0 2.0 0.00 0.00 0.00 82 1013.7
20171124024542 29 281 1.0 2.0 0.00 0.00 0.00 83 1013.6
20171124024043 29 281 1.0 2.0 0.00 0.00 0.00 83 1013.4
20171124023549 29 281 1.0 2.0 0.00 0.00 0.00 83 1013.3
20171124023051 29 281 1.0 2.0 0.00 0.00 0.00 84 1013.3
20171124022552 29 281 1.0 2.0 0.00 0.00 0.00 82 1013.4
20171124022054 29 281 0.0 1.0 0.00 0.00 0.00 81 1013.4
20171124021601 29 281 1.0 1.0 0.00 0.00 0.00 78 1013.3
20171124021044 29 281 0.0 1.0 0.00 0.00 0.00 80 1013.3
20171124020612 29 281 1.0 2.0 0.00 0.00 0.00 80 1013.4
20171124020054 29 281 1.0 2.0 0.00 0.00 0.00 82 1013.3
20171124015537 29 281 1.0 2.0 0.00 0.00 0.00 81 1013.2
20171124015041 29 281 1.0 2.0 0.00 0.00 0.00 80 1013.0
20171124014548 29 281 0.0 2.0 0.00 0.00 0.00 80 1013.2
20171124014053 30 281 0.0 2.0 0.00 0.00 0.00 79 1013.2
20171124013558 30 281 1.0 1.0 0.00 0.00 0.00 77 1013.2
20171124013102 30 281 0.0 1.0 0.00 0.00 0.00 77 1013.2
20171124012550 30 281 0.0 1.0 0.00 0.00 0.00 79 1013.1
20171124012115 30 281 0.0 1.0 0.00 0.00 0.00 79 1013.3
20171124011556 30 281 1.0 1.0 0.00 0.00 0.00 79 1013.3
20171124011055 30 281 0.0 1.0 0.00 0.00 0.00 78 1013.3
20171124010540 30 281 0.0 1.0 0.00 0.00 0.00 79 1013.3
20171124010040 30 281 0.0 0.0 0.00 0.00 0.00 79 1013.3
20171124005544 30 281 0.0 0.0 0.00 0.00 0.00 77 1013.3
20171124005043 30 281 0.0 0.0 0.00 0.00 0.00 77 1013.3
20171124004550 31 281 0.0 0.0 0.00 0.00 0.00 76 1013.3
20171124004047 31 281 0.0 1.0 0.00 0.00 0.00 75 1013.3
20171124003616 31 281 0.0 1.0 0.00 0.00 0.00 75 1013.3
20171124003056 31 281 0.0 0.0 0.00 0.00 0.00 75 1013.4
20171124002542 31 281 0.0 0.0 0.00 0.00 0.00 71 1013.2
20171124002046 31 283 0.0 0.0 0.00 0.00 0.00 71 1013.2
20171124001553 30 283 0.0 0.0 0.00 0.00 0.00 71 1013.2
20171124001050 30 283 0.0 0.0 0.00 0.00 0.00 72 1013.2
20171124000557 30 283 0.0 1.0 0.00 0.00 0.00 72 1013.2
20171124000059 30 283 0.0 1.0 0.00 0.00 0.00 73 1013.1
20171123235546 30 283 0.0 1.0 0.00 0.00 0.00 74 1013.2
20171123235046 30 283 0.0 1.0 0.00 0.00 0.00 74 1013.1
20171123234554 30 283 0.0 0.0 0.00 0.00 0.00 71 1013.0
20171123234100 30 283 0.0 0.0 0.00 0.00 0.00 71 1013.1
20171123233544 30 283 0.0 0.0 0.00 0.00 0.00 73 1013.1
20171123233046 30 283 0.0 0.0 0.00 0.00 0.00 71 1013.1
20171123232553 30 283 0.0 0.0 0.00 0.00 0.00 70 1013.1
20171123232059 30 283 0.0 0.0 0.00 0.00 0.00 71 1013.1
20171123231542 31 283 0.0 0.0 0.00 0.00 0.00 71 1013.1
20171123231046 31 283 0.0 0.0 0.00 0.00 0.00 69 1013.3
20171123230553 31 283 0.0 0.0 0.00 0.00 0.00 68 1013.3
20171123230055 31 283 0.0 0.0 0.00 0.00 0.00 68 1013.4
20171123225540 31 283 0.0 0.0 0.00 0.00 0.00 69 1013.4
20171123225044 31 283 0.0 1.0 0.00 0.00 0.00 70 1013.4
20171123224552 31 283 0.0 1.0 0.00 0.00 0.00 68 1013.4
20171123224055 32 283 0.0 0.0 0.00 0.00 0.00 67 1013.3
20171123223542 32 283 0.0 0.0 0.00 0.00 0.00 66 1013.4
20171123223045 32 283 0.0 0.0 0.00 0.00 0.00 67 1013.4
20171123222554 32 283 0.0 0.0 0.00 0.00 0.00 67 1013.4
20171123222055 33 283 0.0 0.0 0.00 0.00 0.00 68 1013.3
20171123221543 33 283 0.0 0.0 0.00 0.00 0.00 68 1013.3
20171123221049 33 283 0.0 1.0 0.00 0.00 0.00 67 1013.2
20171123220557 33 283 0.0 1.0 0.00 0.00 0.00 65 1013.3
20171123220041 34 283 0.0 1.0 0.00 0.00 0.00 64 1013.3
20171123215549 34 283 0.0 2.0 0.00 0.00 0.00 62 1013.2
20171123215049 34 283 1.0 2.0 0.00 0.00 0.00 62 1013.3
20171123214555 34 283 1.0 2.0 0.00 0.00 0.00 62 1013.2
20171123214056 35 283 1.0 2.0 0.00 0.00 0.00 62 1013.2
20171123213544 35 283 1.0 2.0 0.00 0.00 0.00 60 1013.2
20171123213047 36 283 1.0 2.0 0.00 0.00 0.00 59 1013.2
20171123212553 36 283 1.0 2.0 0.00 0.00 0.00 59 1013.3
20171123212052 37 283 0.0 3.0 0.00 0.00 0.00 58 1013.2
20171123211537 37 283 1.0 3.0 0.00 0.00 0.00 57 1013.3
20171123211043 37 294 0.0 2.0 0.00 0.00 0.00 57 1013.2
20171123210550 37 294 1.0 4.0 0.00 0.00 0.00 57 1013.1
20171123210051 37 294 1.0 4.0 0.00 0.00 0.00 57 1013.1
20171123205554 37 272 1.0 4.0 0.00 0.00 0.00 58 1013.2
20171123205056 38 275 1.0 4.0 0.00 0.00 0.00 57 1013.0
20171123204544 38 283 1.0 10.0 0.00 0.00 0.00 56 1013.1
20171123204044 38 275 1.0 10.0 0.00 0.00 0.00 56 1013.2
20171123203552 38 262 5.0 10.0 0.00 0.00 0.00 56 1013.2
20171123203058 38 287 2.0 9.0 0.00 0.00 0.00 57 1013.2
20171123202545 38 280 2.0 9.0 0.00 0.00 0.00 56 1013.1
20171123202048 38 276 2.0 7.0 0.00 0.00 0.00 56 1013.1
20171123201541 38 296 3.0 9.0 0.00 0.00 0.00 56 1013.1
20171123201043 38 297 3.0 9.0 0.00 0.00 0.00 56 1013.1
20171123200552 38 300 3.0 9.0 0.00 0.00 0.00 56 1013.2
20171123200053 38 265 4.0 9.0 0.00 0.00 0.00 56 1013.1
20171123195554 39 306 1.0 6.0 0.00 0.00 0.00 57 1013.1
20171123195055 39 296 2.0 6.0 0.00 0.00 0.00 56 1013.1
20171123194541 39 313 2.0 6.0 0.00 0.00 0.00 58 1013.0
20171123194045 39 259 1.0 6.0 0.00 0.00 0.00 56 1013.0
20171123193552 38 287 2.0 6.0 0.00 0.00 0.00 57 1013.1
20171123193053 38 344 1.0 7.0 0.00 0.00 0.00 56 1013.2
20171123192539 38 290 4.0 7.0 0.00 0.00 0.00 57 1013.2
20171123192055 38 218 3.0 9.0 0.00 0.00 0.00 57 1013.2
20171123191541 38 268 4.0 11.0 0.00 0.00 0.00 56 1013.3
20171123191041 39 263 3.0 11.0 0.00 0.00 0.00 57 1013.4
20171123190548 39 285 3.0 9.0 0.00 0.00 0.00 57 1013.5
20171123190052 39 338 2.0 9.0 0.00 0.00 0.00 57 1013.5
20171123185556 39 343 2.0 6.0 0.00 0.00 0.00 56 1013.4
20171123185058 39 279 3.0 9.0 0.00 0.00 0.00 55 1013.4
20171123184544 39 304 4.0 9.0 0.00 0.00 0.00 55 1013.5
20171123184049 40 263 2.0 7.0 0.00 0.00 0.00 55 1013.5
20171123183553 39 259 3.0 7.0 0.00 0.00 0.00 56 1013.6
20171123183052 39 326 1.0 5.0 0.00 0.00 0.00 57 1013.7
20171123182544 38 291 3.0 10.0 0.00 0.00 0.00 56 1013.8
20171123182046 38 263 3.0 10.0 0.00 0.00 0.00 56 1014.0
20171123181552 38 278 4.0 10.0 0.00 0.00 0.00 56 1013.9
20171123181053 38 350 3.0 10.0 0.00 0.00 0.00 57 1013.9
20171123180557 38 304 1.0 10.0 0.00 0.00 0.00 57 1014.1
20171123180054 38 292 6.0 10.0 0.00 0.00 0.00 58 1014.1
20171123175556 37 281 4.0 10.0 0.00 0.00 0.00 58 1014.2
20171123175038 37 232 1.0 10.0 0.00 0.00 0.00 59 1014.2
20171123174547 37 296 5.0 9.0 0.00 0.00 0.00 59 1014.3
20171123174047 37 271 3.0 11.0 0.00 0.00 0.00 59 1014.3
20171123173552 37 273 7.0 11.0 0.00 0.00 0.00 59 1014.3
20171123173053 37 246 3.0 10.0 0.00 0.00 0.00 60 1014.4
20171123172538 37 246 3.0 10.0 0.00 0.00 0.00 61 1014.5
20171123172041 37 346 3.0 12.0 0.00 0.00 0.00 61 1014.6
20171123171548 36 289 6.0 12.0 0.00 0.00 0.00 59 1014.6
20171123171051 37 227 6.0 11.0 0.00 0.00 0.00 60 1014.6
20171123170600 37 257 2.0 6.0 0.00 0.00 0.00 61 1014.5
20171123170057 36 286 2.0 7.0 0.00 0.00 0.00 63 1014.5
20171123165545 36 294 2.0 8.0 0.00 0.00 0.00 62 1014.6
20171123165050 36 292 5.0 8.0 0.00 0.00 0.00 61 1014.6
20171123164556 36 43 1.0 5.0 0.00 0.00 0.00 62 1014.7
20171123164058 36 30 2.0 9.0 0.00 0.00 0.00 63 1014.7
20171123163545 35 280 3.0 9.0 0.00 0.00 0.00 62 1014.8
20171123163047 35 273 6.0 9.0 0.00 0.00 0.00 62 1014.8
20171123162555 35 271 5.0 9.0 0.00 0.00 0.00 62 1014.8
20171123162100 35 268 4.0 9.0 0.00 0.00 0.00 63 1015.0
20171123161544 34 360 4.0 10.0 0.00 0.00 0.00 64 1015.0
20171123161047 34 265 4.0 12.0 0.00 0.00 0.00 66 1015.3
20171123160555 34 306 5.0 12.0 0.00 0.00 0.00 65 1015.5
20171123160040 34 252 6.0 12.0 0.00 0.00 0.00 65 1015.5
20171123155547 34 306 5.0 13.0 0.00 0.00 0.00 65 1015.6
20171123155050 34 307 5.0 13.0 0.00 0.00 0.00 65 1015.6
20171123154554 34 288 4.0 9.0 0.00 0.00 0.00 66 1015.7
20171123154057 34 279 5.0 11.0 0.00 0.00 0.00 65 1015.7
20171123153544 34 334 3.0 13.0 0.00 0.00 0.00 66 1015.8
20171123153047 34 263 3.0 13.0 0.00 0.00 0.00 67 1016.0
20171123152553 33 290 3.0 9.0 0.00 0.00 0.00 67 1016.0
20171123152057 33 263 3.0 8.0 0.00 0.00 0.00 67 1016.1
20171123151543 33 296 2.0 8.0 0.00 0.00 0.00 66 1016.2
20171123151048 33 284 3.0 6.0 0.00 0.00 0.00 67 1016.2
20171123150549 33 292 3.0 6.0 0.00 0.00 0.00 68 1016.2
20171123150052 33 51 2.0 4.0 0.00 0.00 0.00 69 1016.1
20171123145540 32 11 2.0 6.0 0.00 0.00 0.00 70 1016.0
20171123145043 32 335 2.0 6.0 0.00 0.00 0.00 70 1016.1
20171123144546 32 328 2.0 7.0 0.00 0.00 0.00 71 1016.1
20171123144046 32 299 4.0 10.0 0.00 0.00 0.00 72 1016.1
20171123143550 31 315 5.0 10.0 0.00 0.00 0.00 72 1016.1
20171123143048 31 34 1.0 9.0 0.00 0.00 0.00 71 1016.1
20171123142550 31 323 4.0 9.0 0.00 0.00 0.00 72 1016.1
20171123142050 31 321 3.0 9.0 0.00 0.00 0.00 72 1016.1
20171123141552 31 297 4.0 9.0 0.00 0.00 0.00 72 1016.1
20171123141050 31 5 1.0 8.0 0.00 0.00 0.00 74 1016.0
20171123140557 31 331 2.0 8.0 0.00 0.00 0.00 74 1016.0
20171123140053 31 5 3.0 6.0 0.00 0.00 0.00 74 1016.0
20171123135557 31 350 3.0 6.0 0.00 0.00 0.00 74 1016.0
20171123135050 30 13 3.0 5.0 0.00 0.00 0.00 74 1016.0
20171123134556 30 343 3.0 6.0 0.00 0.00 0.00 74 1015.9
20171123134053 30 5 3.0 6.0 0.00 0.00 0.00 74 1016.0
20171123133557 30 102 2.0 6.0 0.00 0.00 0.00 75 1016.0
20171123133122 30 209 2.0 8.0 0.00 0.00 0.00 75 1016.0
20171123132545 30 69 3.0 8.0 0.00 0.00 0.00 75 1015.9
20171123132044 30 111 3.0 8.0 0.00 0.00 0.00 76 1015.9
20171123131548 29 342 3.0 9.0 0.00 0.00 0.00 76 1015.9
20171123131046 29 340 3.0 9.0 0.00 0.00 0.00 77 1016.1
20171123130552 29 284 2.0 6.0 0.00 0.00 0.00 78 1016.1
20171123130050 29 291 2.0 4.0 0.00 0.00 0.00 78 1016.0
20171123125553 29 292 2.0 3.0 0.00 0.00 0.00 78 1015.9
20171123125052 29 300 1.0 5.0 0.00 0.00 0.00 79 1015.8
20171123124555 29 23 2.0 5.0 0.00 0.00 0.00 78 1015.8
20171123124052 29 324 2.0 8.0 0.00 0.00 0.00 78 1015.6
20171123123046 29 34 2.0 6.0 0.00 0.00 0.00 78 1015.6
20171123122552 29 310 2.0 9.0 0.00 0.00 0.00 78 1015.7
20171123122051 29 314 3.0 9.0 0.00 0.00 0.00 78 1015.7
20171123121555 29 338 3.0 6.0 0.00 0.00 0.00 78 1015.5
20171123121059 29 324 2.0 5.0 0.00 0.00 0.00 78 1015.5
20171123120558 29 348 2.0 4.0 0.00 0.00 0.00 78 1015.5
20171123120054 29 317 2.0 4.0 0.00 0.00 0.00 77 1015.3
20171123115537 29 327 2.0 6.0 0.00 0.00 0.00 77 1015.5
20171123114550 29 319 3.0 8.0 0.00 0.00 0.00 77 1015.3
20171123114048 29 311 2.0 9.0 0.00 0.00 0.00 77 1015.3
20171123113552 29 300 3.0 11.0 0.00 0.00 0.00 77 1015.1
20171123113052 29 323 3.0 11.0 0.00 0.00 0.00 78 1015.1
20171123112540 29 5 2.0 9.0 0.00 0.00 0.00 78 1014.8
20171123112056 29 321 3.0 9.0 0.00 0.00 0.00 78 1014.9
20171123111542 29 302 4.0 9.0 0.00 0.00 0.00 78 1014.7
20171123110544 29 13 2.0 5.0 0.00 0.00 0.00 79 1014.6
20171123110043 29 11 3.0 8.0 0.00 0.00 0.00 78 1014.5
20171123105054 29 221 4.0 7.0 0.00 0.00 0.00 78 1014.5
20171123104604 29 325 3.0 8.0 0.00 0.00 0.00 79 1014.6
20171123104057 29 278 3.0 8.0 0.00 0.00 0.00 79 1014.7
20171123103540 29 341 3.0 7.0 0.00 0.00 0.00 79 1014.5
20171123103042 29 346 3.0 7.0 0.00 0.00 0.00 79 1014.4
20171123102548 29 319 327.0 327.0 0.00 0.00 0.00 79 1014.1
20171123102050 29 304 3.0 8.0 0.00 0.00 0.00 79 1014.3
20171123101558 30 316 3.0 14.0 0.00 0.00 0.00 79 1014.3
20171123101054 30 302 3.0 14.0 0.00 0.00 0.00 79 1014.3
20171123100558 30 301 3.0 8.0 0.00 0.00 0.00 79 1014.4
20171123100054 30 334 3.0 10.0 0.00 0.00 0.00 79 1014.4
20171123095539 30 301 3.0 10.0 0.00 0.00 0.00 79 1014.4
20171123095042 30 248 3.0 15.0 0.00 0.00 0.00 80 1014.3
20171123094548 30 303 5.0 15.0 0.00 0.00 0.00 80 1014.4
20171123094048 30 296 3.0 11.0 0.00 0.00 0.00 80 1014.7
20171123093552 30 302 3.0 9.0 0.00 0.00 0.00 80 1014.7
20171123093045 30 238 4.0 8.0 0.00 0.00 0.00 81 1014.6
20171123092549 30 302 4.0 6.0 0.00 0.00 0.00 82 1014.7
20171123092048 29 295 3.0 8.0 0.00 0.00 0.00 83 1014.6